| time (UTC) | temp C | wind direction | speed KPH | gust KPH | rain 1hr cm | rain 24hr cm | rain mn cm | humidity % | barometer mb |
| 20260502215503 | 21 | 327 | 8.0 | 9.7 | 0.00 | 0.00 | 0.00 | 32 | 1017.5 |
| 20260502215000 | 20 | 33 | 1.6 | 1.6 | 0.00 | 0.00 | 0.00 | 33 | 1017.7 |
| 20260502214457 | 20 | 325 | 4.8 | 4.8 | 0.00 | 0.00 | 0.00 | 34 | 1017.8 |
| 20260502213954 | 21 | 26 | 3.2 | 4.8 | 0.00 | 0.00 | 0.00 | 34 | 1017.9 |
| 20260502213451 | 21 | 333 | 3.2 | 3.2 | 0.00 | 0.00 | 0.00 | 32 | 1017.9 |
| 20260502212949 | 20 | 341 | 6.4 | 8.0 | 0.00 | 0.00 | 0.00 | 33 | 1018.0 |
| 20260502212448 | 20 | 57 | 6.4 | 9.7 | 0.00 | 0.00 | 0.00 | 37 | 1018.0 |
| 20260502211944 | 20 | 303 | 8.0 | 8.0 | 0.00 | 0.00 | 0.00 | 36 | 1018.2 |
| 20260502211440 | 20 | 32 | 6.4 | 9.7 | 0.00 | 0.00 | 0.00 | 33 | 1018.2 |
| 20260502210938 | 20 | 317 | 6.4 | 9.7 | 0.00 | 0.00 | 0.00 | 34 | 1018.2 |
| 20260502210434 | 19 | 334 | 6.4 | 8.0 | 0.00 | 0.00 | 0.00 | 35 | 1018.3 |
| 20260502205932 | 19 | 332 | 8.0 | 9.7 | 0.00 | 0.00 | 0.00 | 35 | 1018.2 |
| 20260502205428 | 18 | 329 | 4.8 | 4.8 | 0.00 | 0.00 | 0.00 | 35 | 1018.4 |
| 20260502204925 | 18 | 294 | 6.4 | 8.0 | 0.00 | 0.00 | 0.00 | 37 | 1018.6 |
| 20260502204422 | 18 | 275 | 6.4 | 8.0 | 0.00 | 0.00 | 0.00 | 37 | 1018.7 |
| 20260502203920 | 18 | 317 | 8.0 | 9.7 | 0.00 | 0.00 | 0.00 | 37 | 1018.5 |
| 20260502203417 | 18 | 21 | 6.4 | 8.0 | 0.00 | 0.00 | 0.00 | 37 | 1018.5 |
| 20260502202913 | 18 | 335 | 8.0 | 9.7 | 0.00 | 0.00 | 0.00 | 36 | 1018.5 |
| 20260502202410 | 18 | 270 | 8.0 | 9.7 | 0.00 | 0.00 | 0.00 | 38 | 1018.7 |
| 20260502201908 | 18 | 346 | 8.0 | 9.7 | 0.00 | 0.00 | 0.00 | 37 | 1018.7 |
| 20260502201403 | 18 | 5 | 8.0 | 9.7 | 0.00 | 0.00 | 0.00 | 40 | 1018.7 |
| 20260502200901 | 17 | 317 | 9.7 | 9.7 | 0.00 | 0.00 | 0.00 | 37 | 1018.8 |
| 20260502200356 | 17 | 295 | 12.9 | 12.9 | 0.00 | 0.00 | 0.00 | 35 | 1018.9 |
| 20260502195854 | 18 | 308 | 12.9 | 12.9 | 0.00 | 0.00 | 0.00 | 34 | 1018.8 |
| 20260502195350 | 17 | 279 | 11.3 | 12.9 | 0.00 | 0.00 | 0.00 | 35 | 1018.9 |
| 20260502194847 | 18 | 318 | 11.3 | 12.9 | 0.00 | 0.00 | 0.00 | 36 | 1018.8 |
| 20260502194344 | 18 | 343 | 8.0 | 9.7 | 0.00 | 0.00 | 0.00 | 37 | 1019.1 |
| 20260502193840 | 18 | 338 | 4.8 | 8.0 | 0.00 | 0.00 | 0.00 | 37 | 1019.2 |
| 20260502193337 | 18 | 337 | 6.4 | 9.7 | 0.00 | 0.00 | 0.00 | 36 | 1019.2 |
| 20260502192833 | 18 | 346 | 6.4 | 8.0 | 0.00 | 0.00 | 0.00 | 37 | 1019.2 |
| 20260502192330 | 19 | 339 | 8.0 | 11.3 | 0.00 | 0.00 | 0.00 | 37 | 1019.3 |
| 20260502191827 | 19 | 282 | 9.7 | 12.9 | 0.00 | 0.00 | 0.00 | 38 | 1019.4 |
| 20260502191325 | 18 | 16 | 4.8 | 8.0 | 0.00 | 0.00 | 0.00 | 38 | 1019.4 |
| 20260502190822 | 18 | 245 | 9.7 | 9.7 | 0.00 | 0.00 | 0.00 | 37 | 1019.5 |
| 20260502190319 | 18 | 33 | 4.8 | 4.8 | 0.00 | 0.00 | 0.00 | 39 | 1019.5 |
| 20260502185815 | 18 | 1 | 4.8 | 4.8 | 0.00 | 0.00 | 0.00 | 38 | 1019.6 |
| 20260502185311 | 18 | 357 | 8.0 | 9.7 | 0.00 | 0.00 | 0.00 | 38 | 1019.6 |
| 20260502184808 | 17 | 344 | 3.2 | 4.8 | 0.00 | 0.00 | 0.00 | 40 | 1019.6 |
| 20260502184303 | 18 | 327 | 6.4 | 9.7 | 0.00 | 0.00 | 0.00 | 40 | 1019.9 |
| 20260502183800 | 18 | 18 | 4.8 | 8.0 | 0.00 | 0.00 | 0.00 | 39 | 1019.8 |
| 20260502183256 | 17 | 265 | 9.7 | 11.3 | 0.00 | 0.00 | 0.00 | 37 | 1019.9 |
| 20260502182751 | 17 | 345 | 4.8 | 9.7 | 0.00 | 0.00 | 0.00 | 39 | 1019.9 |
| 20260502182247 | 17 | 338 | 6.4 | 9.7 | 0.00 | 0.00 | 0.00 | 39 | 1019.8 |
| 20260502181743 | 17 | 323 | 8.0 | 11.3 | 0.00 | 0.00 | 0.00 | 40 | 1020.2 |
| 20260502181238 | 16 | 330 | 6.4 | 9.7 | 0.00 | 0.00 | 0.00 | 41 | 1020.1 |
| 20260502180734 | 17 | 262 | 4.8 | 4.8 | 0.00 | 0.00 | 0.00 | 40 | 1020.3 |
| 20260502180232 | 17 | 326 | 8.0 | 11.3 | 0.00 | 0.00 | 0.00 | 42 | 1020.5 |
| 20260502170156 | 15 | 304 | 6.4 | 9.7 | 0.00 | 0.00 | 0.00 | 46 | 1020.9 |
| 20260502164142 | 15 | 22 | 3.2 | 8.0 | 0.00 | 0.00 | 0.00 | 47 | 1021.1 |
| 20260502163638 | 14 | 39 | 1.6 | 3.2 | 0.00 | 0.00 | 0.00 | 50 | 1021.1 |
| 20260502163135 | 14 | 310 | 4.8 | 8.0 | 0.00 | 0.00 | 0.00 | 50 | 1021.1 |
| 20260502162632 | 13 | 354 | 3.2 | 3.2 | 0.00 | 0.00 | 0.00 | 51 | 1021.2 |
| 20260502162129 | 13 | 314 | 6.4 | 12.9 | 0.00 | 0.00 | 0.00 | 50 | 1020.8 |
| 20260502161626 | 13 | 0 | 4.8 | 4.8 | 0.00 | 0.00 | 0.00 | 50 | 1021.1 |
| 20260502161123 | 13 | 355 | 11.3 | 14.5 | 0.00 | 0.00 | 0.00 | 51 | 1021.1 |
| 20260502160621 | 13 | 284 | 11.3 | 12.9 | 0.00 | 0.00 | 0.00 | 52 | 1021.3 |
| 20260502160120 | 13 | 2 | 1.6 | 3.2 | 0.00 | 0.00 | 0.00 | 49 | 1021.2 |
| 20260502152034 | 12 | 279 | 4.8 | 8.0 | 0.00 | 0.00 | 0.00 | 50 | 1021.7 |
| 20260502151531 | 12 | 187 | 0.0 | 0.0 | 0.00 | 0.00 | 0.00 | 51 | 1021.8 |
| 20260502151028 | 11 | 217 | 3.2 | 3.2 | 0.00 | 0.00 | 0.00 | 53 | 1021.5 |
| 20260502150526 | 11 | 157 | 4.8 | 4.8 | 0.00 | 0.00 | 0.00 | 55 | 1021.8 |
| 20260502130410 | 1 | 23 | 1.6 | 3.2 | 0.00 | 0.00 | 0.00 | 82 | 1021.1 |
| 20260502123353 | 0 | 100 | 1.6 | 3.2 | 0.00 | 0.00 | 0.00 | 85 | 1020.6 |
| 20260502122850 | 0 | 15 | 0.0 | 0.0 | 0.00 | 0.00 | 0.00 | 84 | 1020.7 |
| 20260502122346 | 0 | 15 | 0.0 | 0.0 | 0.00 | 0.00 | 0.00 | 85 | 1020.5 |
| 20260502121845 | 0 | 15 | 0.0 | 0.0 | 0.00 | 0.00 | 0.00 | 86 | 1020.6 |
| 20260502121342 | 0 | 15 | 0.0 | 0.0 | 0.00 | 0.00 | 0.00 | 87 | 1020.7 |
| 20260502120839 | 0 | 15 | 0.0 | 0.0 | 0.00 | 0.00 | 0.00 | 86 | 1020.5 |
| 20260502120335 | 0 | 15 | 0.0 | 0.0 | 0.00 | 0.00 | 0.00 | 87 | 1020.5 |
| 20260502115832 | 0 | 15 | 0.0 | 0.0 | 0.00 | 0.00 | 0.00 | 86 | 1020.4 |
| 20260502115330 | 0 | 15 | 0.0 | 0.0 | 0.00 | 0.00 | 0.00 | 85 | 1020.5 |
| 20260502114826 | 0 | 15 | 0.0 | 0.0 | 0.00 | 0.00 | 0.00 | 85 | 1020.5 |
| 20260502114323 | 0 | 15 | 0.0 | 0.0 | 0.00 | 0.00 | 0.00 | 84 | 1020.2 |
| 20260502113820 | 0 | 15 | 0.0 | 0.0 | 0.00 | 0.00 | 0.00 | 83 | 1020.4 |
| 20260502113317 | 1 | 15 | 0.0 | 0.0 | 0.00 | 0.00 | 0.00 | 82 | 1020.3 |
| 20260502112816 | 1 | 15 | 1.6 | 1.6 | 0.00 | 0.00 | 0.00 | 80 | 1020.4 |
| 20260502112313 | 1 | 15 | 0.0 | 0.0 | 0.00 | 0.00 | 0.00 | 82 | 1020.4 |
| 20260502111810 | 1 | 15 | 0.0 | 0.0 | 0.00 | 0.00 | 0.00 | 81 | 1020.2 |
| 20260502111307 | 1 | 77 | 0.0 | 0.0 | 0.00 | 0.00 | 0.00 | 79 | 1020.2 |
| 20260502110805 | 1 | 77 | 0.0 | 0.0 | 0.00 | 0.00 | 0.00 | 79 | 1020.1 |
| 20260502110303 | 2 | 77 | 0.0 | 0.0 | 0.00 | 0.00 | 0.00 | 78 | 1020.3 |
| 20260502105800 | 2 | 110 | 0.0 | 0.0 | 0.00 | 0.00 | 0.00 | 77 | 1020.2 |
| 20260502105256 | 2 | 111 | 3.2 | 3.2 | 0.00 | 0.00 | 0.00 | 77 | 1019.9 |
| 20260502104754 | 1 | 85 | 1.6 | 1.6 | 0.00 | 0.00 | 0.00 | 80 | 1020.2 |
| 20260502104251 | 1 | 59 | 0.0 | 0.0 | 0.00 | 0.00 | 0.00 | 83 | 1020.2 |
| 20260502103749 | 1 | 59 | 0.0 | 0.0 | 0.00 | 0.00 | 0.00 | 84 | 1020.2 |
| 20260502103246 | 1 | 53 | 0.0 | 0.0 | 0.00 | 0.00 | 0.00 | 83 | 1019.9 |
| 20260502102743 | 1 | 53 | 0.0 | 0.0 | 0.00 | 0.00 | 0.00 | 83 | 1020.1 |
| 20260502102239 | 1 | 55 | 0.0 | 0.0 | 0.00 | 0.00 | 0.00 | 83 | 1019.9 |
| 20260502101738 | 1 | 76 | 0.0 | 0.0 | 0.00 | 0.00 | 0.00 | 82 | 1019.9 |
| 20260502101236 | 2 | 76 | 0.0 | 1.6 | 0.00 | 0.00 | 0.00 | 81 | 1019.9 |
| 20260502100733 | 1 | 88 | 1.6 | 1.6 | 0.00 | 0.00 | 0.00 | 83 | 1019.8 |
| 20260502100232 | 1 | 89 | 3.2 | 3.2 | 0.00 | 0.00 | 0.00 | 81 | 1019.7 |
| 20260502091206 | 3 | 101 | 0.0 | 0.0 | 0.00 | 0.00 | 0.00 | 77 | 1019.7 |
| 20260502090703 | 2 | 101 | 0.0 | 0.0 | 0.00 | 0.00 | 0.00 | 78 | 1019.6 |
| 20260502090159 | 3 | 101 | 0.0 | 0.0 | 0.00 | 0.00 | 0.00 | 77 | 1019.5 |
| 20260502071055 | 6 | 77 | 0.0 | 0.0 | 0.00 | 0.00 | 0.00 | 67 | 1019.4 |
| 20260502070554 | 5 | 77 | 0.0 | 0.0 | 0.00 | 0.00 | 0.00 | 72 | 1019.2 |
| 20260502070051 | 5 | 53 | 0.0 | 0.0 | 0.00 | 0.00 | 0.00 | 72 | 1019.2 |
| 20260502065549 | 5 | 53 | 0.0 | 0.0 | 0.00 | 0.00 | 0.00 | 72 | 1019.2 |
| 20260502065047 | 5 | 54 | 0.0 | 0.0 | 0.00 | 0.00 | 0.00 | 71 | 1019.1 |
| 20260502064545 | 5 | 54 | 0.0 | 0.0 | 0.00 | 0.00 | 0.00 | 71 | 1018.9 |
| 20260502064042 | 5 | 54 | 0.0 | 0.0 | 0.00 | 0.00 | 0.00 | 71 | 1018.9 |
| 20260502063540 | 5 | 54 | 0.0 | 0.0 | 0.00 | 0.00 | 0.00 | 70 | 1019.1 |
| 20260502063037 | 5 | 58 | 0.0 | 0.0 | 0.00 | 0.00 | 0.00 | 71 | 1018.9 |
| 20260502062534 | 5 | 58 | 0.0 | 0.0 | 0.00 | 0.00 | 0.00 | 70 | 1018.8 |
| 20260502062032 | 6 | 58 | 0.0 | 0.0 | 0.00 | 0.00 | 0.00 | 70 | 1018.9 |
| 20260502061530 | 6 | 57 | 0.0 | 0.0 | 0.00 | 0.00 | 0.00 | 69 | 1018.7 |
| 20260502061027 | 6 | 107 | 0.0 | 0.0 | 0.00 | 0.00 | 0.00 | 69 | 1018.8 |
| 20260502060522 | 6 | 107 | 0.0 | 0.0 | 0.00 | 0.00 | 0.00 | 68 | 1018.9 |
| 20260502060019 | 6 | 108 | 1.6 | 3.2 | 0.00 | 0.00 | 0.00 | 68 | 1018.7 |
| 20260502055516 | 6 | 87 | 1.6 | 1.6 | 0.00 | 0.00 | 0.00 | 67 | 1018.8 |
| 20260502055015 | 7 | 73 | 0.0 | 0.0 | 0.00 | 0.00 | 0.00 | 63 | 1018.7 |
| 20260502054513 | 7 | 56 | 0.0 | 0.0 | 0.00 | 0.00 | 0.00 | 61 | 1018.7 |
| 20260502054010 | 7 | 55 | 0.0 | 0.0 | 0.00 | 0.00 | 0.00 | 62 | 1018.8 |
| 20260502053507 | 7 | 68 | 0.0 | 0.0 | 0.00 | 0.00 | 0.00 | 66 | 1018.7 |
| 20260502053005 | 7 | 39 | 0.0 | 0.0 | 0.00 | 0.00 | 0.00 | 64 | 1018.7 |
| 20260502052503 | 7 | 97 | 0.0 | 0.0 | 0.00 | 0.00 | 0.00 | 62 | 1018.7 |
| 20260502052001 | 7 | 97 | 0.0 | 0.0 | 0.00 | 0.00 | 0.00 | 61 | 1018.5 |
| 20260502051459 | 7 | 97 | 0.0 | 0.0 | 0.00 | 0.00 | 0.00 | 60 | 1018.5 |
| 20260502050955 | 7 | 97 | 0.0 | 0.0 | 0.00 | 0.00 | 0.00 | 61 | 1018.5 |
| 20260502050452 | 7 | 97 | 0.0 | 0.0 | 0.00 | 0.00 | 0.00 | 64 | 1018.6 |
| 20260502045949 | 8 | 131 | 0.0 | 0.0 | 0.00 | 0.00 | 0.00 | 62 | 1018.6 |
| 20260502045446 | 7 | 131 | 1.6 | 1.6 | 0.00 | 0.00 | 0.00 | 62 | 1018.8 |
| 20260502044943 | 7 | 131 | 3.2 | 3.2 | 0.00 | 0.00 | 0.00 | 64 | 1018.5 |
| 20260502044438 | 7 | 104 | 0.0 | 0.0 | 0.00 | 0.00 | 0.00 | 66 | 1018.8 |
| 20260502043936 | 7 | 104 | 0.0 | 0.0 | 0.00 | 0.00 | 0.00 | 65 | 1018.5 |
| 20260502043434 | 7 | 104 | 0.0 | 0.0 | 0.00 | 0.00 | 0.00 | 64 | 1018.4 |
| 20260502042933 | 8 | 242 | 0.0 | 0.0 | 0.00 | 0.00 | 0.00 | 63 | 1018.6 |
| 20260502042430 | 8 | 169 | 0.0 | 0.0 | 0.00 | 0.00 | 0.00 | 61 | 1018.4 |
| 20260502041927 | 8 | 144 | 0.0 | 0.0 | 0.00 | 0.00 | 0.00 | 59 | 1018.4 |
| 20260502041425 | 9 | 144 | 0.0 | 0.0 | 0.00 | 0.00 | 0.00 | 57 | 1018.4 |
| 20260502040922 | 10 | 143 | 0.0 | 0.0 | 0.00 | 0.00 | 0.00 | 56 | 1018.5 |
| 20260502040419 | 10 | 144 | 0.0 | 0.0 | 0.00 | 0.00 | 0.00 | 57 | 1018.4 |
| 20260502035915 | 10 | 144 | 0.0 | 0.0 | 0.00 | 0.00 | 0.00 | 57 | 1018.4 |
| 20260502035411 | 10 | 143 | 0.0 | 0.0 | 0.00 | 0.00 | 0.00 | 56 | 1018.3 |
| 20260502034909 | 10 | 94 | 0.0 | 0.0 | 0.00 | 0.00 | 0.00 | 54 | 1018.3 |
| 20260502034408 | 11 | 250 | 3.2 | 3.2 | 0.00 | 0.00 | 0.00 | 55 | 1018.2 |
| 20260502033906 | 12 | 67 | 3.2 | 3.2 | 0.00 | 0.00 | 0.00 | 52 | 1018.0 |
| 20260502033403 | 12 | 77 | 4.8 | 8.0 | 0.00 | 0.00 | 0.00 | 51 | 1017.8 |
| 20260502032859 | 12 | 85 | 3.2 | 3.2 | 0.00 | 0.00 | 0.00 | 49 | 1017.8 |
| 20260502032355 | 13 | 94 | 4.8 | 4.8 | 0.00 | 0.00 | 0.00 | 49 | 1017.9 |
| 20260502031853 | 13 | 87 | 4.8 | 8.0 | 0.00 | 0.00 | 0.00 | 46 | 1017.7 |
| 20260502031351 | 13 | 69 | 0.0 | 0.0 | 0.00 | 0.00 | 0.00 | 46 | 1017.8 |
| 20260502030849 | 14 | 105 | 3.2 | 3.2 | 0.00 | 0.00 | 0.00 | 45 | 1017.7 |
| 20260502030347 | 14 | 105 | 3.2 | 3.2 | 0.00 | 0.00 | 0.00 | 44 | 1017.6 |
| 20260502025844 | 14 | 111 | 4.8 | 4.8 | 0.00 | 0.00 | 0.00 | 43 | 1017.4 |
| 20260502025342 | 14 | 81 | 3.2 | 3.2 | 0.00 | 0.00 | 0.00 | 44 | 1017.5 |
| 20260502024840 | 14 | 41 | 1.6 | 1.6 | 0.00 | 0.00 | 0.00 | 44 | 1017.5 |
| 20260502024337 | 16 | 51 | 3.2 | 3.2 | 0.00 | 0.00 | 0.00 | 39 | 1017.5 |
| 20260502023835 | 16 | 116 | 3.2 | 3.2 | 0.00 | 0.00 | 0.00 | 37 | 1017.4 |
| 20260502023332 | 16 | 119 | 3.2 | 3.2 | 0.00 | 0.00 | 0.00 | 37 | 1017.2 |
| 20260502022830 | 17 | 120 | 4.8 | 4.8 | 0.00 | 0.00 | 0.00 | 37 | 1016.9 |
| 20260502022326 | 17 | 119 | 4.8 | 4.8 | 0.00 | 0.00 | 0.00 | 36 | 1017.3 |
| 20260502021823 | 17 | 126 | 6.4 | 8.0 | 0.00 | 0.00 | 0.00 | 36 | 1017.4 |
| 20260502021320 | 17 | 102 | 8.0 | 9.7 | 0.00 | 0.00 | 0.00 | 35 | 1017.3 |
| 20260502020818 | 18 | 100 | 6.4 | 8.0 | 0.00 | 0.00 | 0.00 | 35 | 1017.0 |
| 20260502020315 | 18 | 120 | 9.7 | 14.5 | 0.00 | 0.00 | 0.00 | 34 | 1017.0 |
| 20260502015812 | 18 | 127 | 11.3 | 11.3 | 0.00 | 0.00 | 0.00 | 33 | 1017.0 |
| 20260502015308 | 19 | 117 | 11.3 | 12.9 | 0.00 | 0.00 | 0.00 | 33 | 1017.2 |
| 20260502014806 | 19 | 109 | 11.3 | 12.9 | 0.00 | 0.00 | 0.00 | 33 | 1016.9 |
| 20260502014303 | 19 | 117 | 8.0 | 11.3 | 0.00 | 0.00 | 0.00 | 33 | 1016.9 |
| 20260502013759 | 20 | 119 | 9.7 | 11.3 | 0.00 | 0.00 | 0.00 | 33 | 1017.3 |
| 20260502013255 | 20 | 125 | 14.5 | 16.1 | 0.00 | 0.00 | 0.00 | 31 | 1017.2 |
| 20260502012752 | 20 | 119 | 11.3 | 12.9 | 0.00 | 0.00 | 0.00 | 32 | 1017.3 |
| 20260502012249 | 20 | 133 | 11.3 | 11.3 | 0.00 | 0.00 | 0.00 | 30 | 1017.0 |
| 20260502011747 | 20 | 108 | 11.3 | 12.9 | 0.00 | 0.00 | 0.00 | 30 | 1017.3 |
| 20260502011242 | 20 | 114 | 8.0 | 11.3 | 0.00 | 0.00 | 0.00 | 31 | 1017.4 |
| 20260502010740 | 20 | 114 | 11.3 | 12.9 | 0.00 | 0.00 | 0.00 | 29 | 1017.2 |
| 20260502010235 | 20 | 108 | 8.0 | 9.7 | 0.00 | 0.00 | 0.00 | 29 | 1017.4 |
| 20260502005733 | 21 | 120 | 8.0 | 11.3 | 0.00 | 0.00 | 0.00 | 28 | 1017.3 |
| 20260502005231 | 21 | 117 | 12.9 | 14.5 | 0.00 | 0.00 | 0.00 | 26 | 1017.2 |
| 20260502004728 | 21 | 111 | 11.3 | 14.5 | 0.00 | 0.00 | 0.00 | 26 | 1017.3 |
| 20260502004224 | 21 | 123 | 14.5 | 16.1 | 0.00 | 0.00 | 0.00 | 26 | 1017.4 |
| 20260502003722 | 21 | 124 | 11.3 | 12.9 | 0.00 | 0.00 | 0.00 | 25 | 1017.5 |
| 20260502003219 | 21 | 117 | 8.0 | 9.7 | 0.00 | 0.00 | 0.00 | 26 | 1017.5 |
| 20260502002715 | 21 | 124 | 11.3 | 11.3 | 0.00 | 0.00 | 0.00 | 26 | 1017.6 |
| 20260502002213 | 21 | 111 | 14.5 | 16.1 | 0.00 | 0.00 | 0.00 | 27 | 1017.5 |
| 20260502001709 | 21 | 109 | 11.3 | 14.5 | 0.00 | 0.00 | 0.00 | 26 | 1017.3 |
| 20260502001208 | 21 | 125 | 9.7 | 9.7 | 0.00 | 0.00 | 0.00 | 26 | 1017.4 |
| 20260502000705 | 21 | 128 | 8.0 | 9.7 | 0.00 | 0.00 | 0.00 | 25 | 1017.5 |
| 20260502000204 | 21 | 107 | 11.3 | 12.9 | 0.00 | 0.00 | 0.00 | 24 | 1017.6 |
| 20260501235658 | 21 | 116 | 14.5 | 14.5 | 0.00 | 0.00 | 0.00 | 23 | 1017.5 |
| 20260501235154 | 21 | 101 | 9.7 | 11.3 | 0.00 | 0.00 | 0.00 | 26 | 1017.6 |
| 20260501234650 | 21 | 83 | 9.7 | 11.3 | 0.00 | 0.00 | 0.00 | 25 | 1017.7 |
| 20260501234148 | 21 | 106 | 11.3 | 11.3 | 0.00 | 0.00 | 0.00 | 25 | 1017.6 |
| 20260501233646 | 21 | 99 | 14.5 | 16.1 | 0.00 | 0.00 | 0.00 | 26 | 1017.6 |
| 20260501233142 | 21 | 140 | 6.4 | 8.0 | 0.00 | 0.00 | 0.00 | 25 | 1017.7 |
| 20260501232638 | 21 | 101 | 8.0 | 11.3 | 0.00 | 0.00 | 0.00 | 27 | 1017.7 |
| 20260501232136 | 21 | 68 | 8.0 | 9.7 | 0.00 | 0.00 | 0.00 | 27 | 1017.8 |
| 20260501231633 | 21 | 84 | 12.9 | 14.5 | 0.00 | 0.00 | 0.00 | 26 | 1017.9 |
| 20260501231132 | 21 | 88 | 11.3 | 14.5 | 0.00 | 0.00 | 0.00 | 31 | 1017.8 |
| 20260501230630 | 21 | 84 | 8.0 | 8.0 | 0.00 | 0.00 | 0.00 | 24 | 1017.9 |
| 20260501230128 | 21 | 71 | 8.0 | 9.7 | 0.00 | 0.00 | 0.00 | 27 | 1017.8 |
| 20260501225625 | 21 | 87 | 9.7 | 11.3 | 0.00 | 0.00 | 0.00 | 28 | 1017.9 |
| 20260501225121 | 21 | 100 | 14.5 | 16.1 | 0.00 | 0.00 | 0.00 | 27 | 1018.0 |
| 20260501224618 | 21 | 75 | 3.2 | 4.8 | 0.00 | 0.00 | 0.00 | 27 | 1018.2 |
| 20260501224115 | 21 | 115 | 8.0 | 9.7 | 0.00 | 0.00 | 0.00 | 26 | 1018.2 |
| 20260501223612 | 21 | 115 | 11.3 | 12.9 | 0.00 | 0.00 | 0.00 | 25 | 1018.2 |
| 20260501223108 | 21 | 76 | 8.0 | 11.3 | 0.00 | 0.00 | 0.00 | 27 | 1018.3 |
| 20260501222604 | 21 | 92 | 6.4 | 9.7 | 0.00 | 0.00 | 0.00 | 23 | 1018.3 |
| 20260501222101 | 21 | 87 | 12.9 | 14.5 | 0.00 | 0.00 | 0.00 | 25 | 1018.5 |
| 20260501221558 | 21 | 90 | 11.3 | 12.9 | 0.00 | 0.00 | 0.00 | 28 | 1018.5 |
| 20260501221055 | 21 | 93 | 16.1 | 16.1 | 0.00 | 0.00 | 0.00 | 27 | 1018.5 |
| 20260501220553 | 21 | 97 | 12.9 | 14.5 | 0.00 | 0.00 | 0.00 | 26 | 1018.4 |
| 20260501220050 | 21 | 89 | 9.7 | 11.3 | 0.00 | 0.00 | 0.00 | 28 | 1018.9 |